GFSMW_850_spd_000.txt.gz
Wind_Speed
17 17 17 18 17 17 16 15 13 12 9 6 5 4 3 3 1 0 9 6 3 5 7 8 8 10 9 10 11 12 13 12 15 17 18 22 26 29 29 31 23 29 32
14 17 19 19 22 20 19 14 13 13 12 9 8 9 8 6 5 4 4 3 6 6 7 9 10 11 12 12 12 13 13 13 13 13 16 13 16 18 25 28 30 28 31
7 12 17 21 22 23 20 18 15 15 15 16 12 9 9 9 7 7 6 9 9 9 10 11 12 12 13 13 15 14 15 17 14 13 10 10 10 19 14 15 24 29 34
8 8 10 16 21 22 22 21 19 18 18 21 15 15 12 12 12 12 11 13 13 14 14 14 15 15 16 17 18 18 19 19 20 18 16 16 17 15 18 18 17 12 28
10 11 10 12 16 20 22 24 22 21 20 20 20 15 14 14 13 13 15 13 16 19 20 16 15 18 19 21 21 22 22 23 25 24 23 23 22 21 23 28 23 23 24
11 15 17 14 13 18 24 26 26 23 22 22 23 22 20 17 16 13 12 12 11 13 14 14 16 18 19 22 24 25 27 28 29 29 29 28 25 25 24 26 26 26 25
14 16 15 13 14 18 24 27 27 24 22 26 27 25 23 17 14 11 11 13 11 12 15 17 20 22 23 24 26 27 29 31 33 33 33 30 29 27 27 26 28 29 26
17 18 16 15 16 19 22 24 24 26 24 28 26 23 20 13 10 15 16 17 16 20 23 27 30 30 30 30 30 31 32 33 35 37 37 36 34 30 28 28 27 28 30
18 18 16 18 18 21 25 27 27 25 25 25 23 21 19 17 16 17 18 17 20 21 23 31 33 33 31 31 29 29 31 31 34 36 37 38 39 34 31 29 28 28 30
22 22 21 22 22 24 23 25 30 29 27 25 22 18 17 16 16 18 21 23 26 27 30 31 28 26 27 28 28 30 31 32 34 35 36 36 38 37 35 32 30 29 30
26 27 25 23 23 23 25 27 28 26 23 20 17 15 13 15 18 20 21 23 26 28 26 25 25 27 28 27 28 30 31 31 33 35 39 39 39 40 40 36 35 34 32
28 26 27 28 22 22 22 23 20 18 16 13 12 12 15 16 18 18 22 24 24 25 25 25 26 28 28 28 29 30 31 32 33 35 36 40 42 44 43 42 40 38 36
29 30 36 30 22 20 18 15 15 14 11 11 12 16 17 15 15 17 21 23 24 24 25 26 28 29 29 29 30 31 32 34 36 36 37 39 40 42 44 45 43 41 40
30 36 39 29 21 17 13 13 12 9 10 14 16 14 12 17 19 23 27 28 28 28 28 29 30 30 31 31 31 32 33 35 38 39 41 43 39 41 40 41 41 40 38
37 37 34 29 20 15 13 12 8 10 13 16 14 12 16 21 24 27 31 30 29 29 29 31 32 31 31 31 30 31 32 35 34 35 38 40 44 43 44 42 38 39 37
40 34 32 28 19 17 14 9 14 12 14 17 14 14 20 21 26 31 30 28 28 29 29 31 31 33 32 33 37 36 33 31 32 35 36 38 38 39 41 46 49 42 31
26 33 31 25 15 14 11 9 14 13 15 17 13 18 20 25 30 30 28 28 30 31 31 31 31 33 33 35 34 31 32 33 32 33 34 33 35 36 35 37 40 49 51
31 28 23 14 11 13 14 16 10 14 16 11 16 18 23 28 30 27 27 28 29 31 31 31 32 34 34 35 32 32 33 33 35 36 36 38 39 37 34 35 37 38 37
31 23 21 16 17 17 19 10 13 12 10 12 14 22 27 29 27 27 27 28 29 30 31 31 32 33 34 33 31 30 31 31 33 34 35 36 38 40 41 40 41 38 38
24 24 23 18 21 11 6 11 12 10 8 13 19 27 27 27 26 27 27 28 29 30 31 33 31 31 33 29 27 25 28 30 29 30 30 32 34 35 37 40 41 38 37
22 25 21 13 6 7 12 14 9 7 13 18 22 25 26 24 27 26 26 28 28 31 33 32 31 32 31 31 29 26 26 29 28 27 28 31 34 35 33 35 40 40 34
23 15 2 3 5 10 12 8 6 10 16 19 23 24 24 25 24 24 26 26 27 31 32 31 31 31 33 30 28 26 26 25 25 28 28 29 32 33 35 37 34 37 37
9 3 4 8 10 12 7 5 10 14 17 21 22 22 24 22 21 23 24 24 25 26 27 28 30 34 34 30 28 27 25 21 20 21 24 29 32 30 25 32 32 32 37
2 3 8 11 8 7 8 10 12 16 19 21 22 24 20 24 23 21 20 22 23 23 23 27 29 33 34 30 30 29 24 21 18 18 20 20 18 12 7 15 23 29 34
3 6 10 8 4 7 9 11 14 18 19 21 23 20 20 23 23 19 20 21 20 20 22 23 26 30 31 29 27 24 22 19 17 16 12 12 11 6 3 8 16 23 29
5 10 9 6 5 8 10 14 17 18 19 21 19 20 23 22 19 20 21 19 23 21 19 20 22 24 22 25 21 17 18 14 11 9 10 11 13 13 9 10 13 18 23

GFSMW_850_spd_003.txt.gz
Wind_Speed
13 14 16 18 17 16 15 15 15 15 13 12 11 10 11 10 10 9 7 6 5 4 3 4 7 8 8 10 10 10 11 11 12 16 16 19 23 27 29 29 29 26 27
6 10 17 19 20 19 19 18 17 17 16 14 14 14 14 14 12 11 12 9 9 7 7 8 8 9 11 12 11 12 13 13 13 15 18 16 15 17 21 25 27 28 27
2 6 11 16 18 20 20 20 20 19 18 17 16 16 14 15 14 14 14 15 12 11 11 11 11 12 12 13 15 15 16 17 17 16 17 17 14 25 16 14 21 25 27
6 6 8 11 16 19 19 20 21 21 21 20 20 19 19 19 17 16 15 14 13 13 13 13 14 15 15 17 18 18 20 21 23 21 19 21 23 25 25 22 22 24 26
9 11 12 14 14 16 19 20 22 23 24 23 25 24 25 22 18 16 16 15 14 13 13 13 14 15 16 19 22 25 26 26 27 26 25 25 26 27 29 32 28 25 26
13 14 15 16 15 14 16 18 21 24 25 26 27 28 28 24 19 17 15 15 14 14 13 14 14 15 16 20 23 26 28 29 30 30 31 30 30 30 30 31 31 30 28
12 15 17 18 17 16 17 18 21 26 28 29 30 28 26 23 20 17 14 14 17 13 13 14 18 20 21 23 24 28 31 31 33 32 33 33 35 34 33 33 34 33 33
17 19 19 19 18 19 20 22 25 28 28 29 30 27 24 21 16 14 16 22 14 13 14 18 18 21 22 23 25 28 31 31 33 34 35 36 39 38 37 36 33 30 32
21 19 20 20 20 21 24 26 29 30 30 28 27 26 22 20 18 17 14 14 11 13 16 18 22 22 23 24 25 28 29 30 33 34 35 38 41 40 40 39 36 34 30
20 21 20 20 21 24 27 27 29 29 27 26 25 21 18 18 19 16 21 16 15 16 19 22 24 25 25 25 26 29 29 31 33 34 35 38 39 39 40 40 41 40 37
21 21 23 25 29 31 29 26 25 22 22 21 21 17 16 14 16 16 11 13 19 20 23 25 25 25 26 26 28 29 32 33 34 34 36 39 40 41 42 41 41 41 37
22 22 25 32 32 32 26 24 21 18 16 16 16 16 14 13 12 14 16 17 18 22 23 25 27 28 28 28 30 32 33 34 35 36 36 38 38 41 43 45 44 42 40
24 28 29 34 32 33 25 22 18 15 14 14 14 12 10 13 17 17 17 18 20 22 25 26 28 29 30 30 31 32 34 34 36 37 38 39 39 41 43 44 42 42 43
30 34 34 30 37 33 28 21 16 14 14 13 12 12 14 15 16 16 16 18 21 24 26 27 28 29 30 31 31 32 33 34 36 37 38 41 42 44 42 40 39 39 40
37 34 27 35 39 30 25 18 15 14 14 13 14 16 15 16 15 16 18 21 23 25 26 28 29 29 30 31 30 31 32 34 38 39 39 41 43 42 46 43 39 35 36
36 35 31 39 32 27 23 16 15 15 17 18 16 14 15 15 15 17 20 23 25 25 27 28 29 30 30 31 35 39 36 38 39 38 37 36 36 37 39 42 47 48 40
38 33 37 35 28 25 17 16 16 17 14 12 13 13 13 14 16 19 23 24 25 26 28 29 28 29 30 33 36 40 39 38 37 36 36 36 35 35 35 35 37 39 43
36 36 37 28 22 18 15 16 13 11 11 12 12 12 13 15 18 21 23 25 26 26 27 28 28 30 31 35 36 34 34 36 36 37 37 38 39 39 39 39 37 38 38
36 34 29 25 27 21 17 16 17 9 12 10 10 12 13 17 20 22 24 25 25 26 28 27 28 31 33 29 27 26 28 30 32 33 34 35 37 37 37 38 40 43 38
32 27 24 31 27 20 8 4 7 11 11 11 10 12 14 18 21 22 24 24 25 27 28 30 30 30 30 27 28 29 31 33 36 36 33 31 32 32 32 34 37 41 41
28 21 31 24 12 6 6 8 10 11 8 10 10 13 16 19 20 22 23 25 26 27 32 35 34 30 28 31 32 33 29 31 34 33 32 31 32 31 30 32 33 36 34
21 31 17 6 4 6 7 9 9 5 8 9 12 15 17 18 20 21 24 24 24 26 32 32 31 31 31 33 35 35 31 32 31 30 28 27 27 30 34 36 35 37 36
29 12 6 5 7 7 6 6 7 10 10 13 14 16 18 19 19 21 23 23 23 26 29 29 32 34 36 36 36 34 32 31 28 25 23 25 25 26 28 27 30 39 36
12 4 5 8 9 5 4 4 9 13 14 13 15 17 17 19 19 20 20 21 23 25 27 30 32 35 37 36 34 35 31 27 22 20 20 16 18 20 19 19 19 24 33
5 4 7 9 8 4 4 7 11 16 15 14 17 16 16 18 19 18 19 21 23 24 28 27 29 32 34 30 31 25 27 23 17 14 15 13 14 14 11 8 2 16 21
4 6 10 8 5 4 5 8 13 14 17 19 14 17 19 18 18 20 21 19 22 25 23 23 25 26 23 25 24 21 18 21 17 16 16 15 14 13 12 13 7 13 16

GFSMW_850_spd_009.txt.gz
Wind_Speed
15 11 16 14 12 13 14 16 18 20 21 20 21 22 23 25 21 23 24 21 21 19 19 14 10 9 8 10 12 14 15 17 21 22 23 26 27 18 21 13 9 11 16
13 12 6 2 6 10 15 17 18 20 20 23 25 24 23 21 23 22 24 23 25 24 22 22 17 17 16 16 15 13 13 15 16 19 23 22 35 30 18 23 24 22 21
4 2 2 5 10 12 14 17 17 18 22 24 25 27 22 23 26 25 25 28 30 29 27 24 18 17 18 18 16 13 15 17 15 15 21 25 23 34 34 31 33 31 29
13 9 5 2 4 8 10 13 16 19 20 23 27 29 31 31 31 31 31 28 28 29 28 24 22 19 17 12 12 15 18 17 22 25 26 29 31 30 35 32 30 32 32
6 4 3 5 6 8 8 11 15 19 25 24 27 30 31 33 36 33 26 27 25 23 29 24 25 22 18 20 24 26 24 26 28 31 30 29 30 34 36 39 35 34 35
3 0 3 10 16 13 14 16 17 21 24 26 29 31 34 37 36 37 35 32 28 21 24 26 25 23 23 21 19 17 21 26 29 33 34 35 37 36 34 35 34 35 35
1 4 11 7 7 7 8 9 13 18 23 27 31 34 37 38 39 41 39 37 31 24 22 20 20 18 20 21 24 24 29 34 35 33 32 32 33 34 34 36 37 36 37
9 10 5 2 2 3 6 13 16 21 28 33 35 27 27 35 40 41 36 33 28 25 23 27 25 25 25 28 37 30 28 32 33 34 32 32 33 33 35 36 35 39 39
6 9 6 5 5 10 13 16 22 26 27 35 35 36 36 37 29 30 27 25 23 22 20 15 19 21 31 25 19 27 32 33 34 34 33 34 34 33 35 36 35 36 37
6 10 12 16 15 16 20 27 29 31 41 28 33 35 36 25 23 26 23 21 19 19 16 20 28 25 15 20 27 30 32 33 34 35 35 35 35 34 34 35 35 34 35
16 18 23 15 14 18 21 26 33 42 27 29 31 32 29 24 22 20 17 16 20 26 21 29 16 17 22 27 30 32 34 35 36 35 35 36 35 35 35 34 33 35 36
20 20 16 18 23 30 36 38 44 32 26 28 29 26 22 20 16 15 16 17 17 17 21 13 17 24 27 30 33 35 36 37 37 37 37 38 38 39 39 38 38 38 38
20 23 25 29 36 36 41 40 34 26 26 28 27 19 15 13 14 13 10 12 17 18 17 17 22 27 32 34 35 36 35 35 35 37 37 38 37 38 39 39 38 38 36
18 23 29 38 38 41 39 31 28 29 28 23 19 16 12 8 9 13 13 11 15 14 19 23 29 31 33 34 32 33 34 33 34 34 33 34 36 39 40 42 45 46 45
19 28 34 35 38 36 30 27 28 31 19 15 10 9 10 12 14 16 19 10 15 21 26 28 29 33 32 33 32 29 32 37 41 44 45 46 47 48 49 51 54 48 45
31 35 37 35 36 30 26 28 32 27 19 16 19 16 14 16 21 13 15 16 21 25 25 30 30 31 34 31 31 34 37 40 42 46 48 48 45 41 40 40 40 40 40
32 37 35 36 29 26 27 32 30 34 32 24 21 21 24 15 11 10 11 21 23 27 30 32 34 32 30 32 35 39 41 38 35 32 33 34 34 34 35 34 34 35 36
33 34 34 28 27 31 32 39 33 22 20 16 8 6 5 4 6 15 19 23 26 28 32 31 28 30 33 36 35 30 27 29 30 31 33 36 36 35 34 34 35 34 34
29 29 26 25 35 31 38 24 10 11 12 9 3 2 6 12 14 18 20 23 28 31 28 28 32 35 31 36 31 27 27 31 34 35 37 37 33 41 35 34 39 41 42
26 23 23 33 29 31 18 10 12 12 7 2 6 6 10 16 16 18 22 27 27 26 30 30 26 28 36 33 27 25 29 33 34 34 34 35 35 34 33 32 34 36 36
23 21 30 27 27 15 11 8 10 7 6 3 8 16 15 16 18 23 25 24 26 26 23 25 30 29 32 27 26 25 27 28 32 33 36 33 30 29 28 30 31 34 33
24 26 25 23 13 11 7 7 5 6 11 15 14 15 17 19 21 21 22 24 23 23 26 30 31 30 26 26 29 23 25 26 28 30 30 29 26 24 24 26 29 31 31
22 26 19 12 11 8 7 7 8 11 12 15 17 17 19 19 19 22 22 20 21 25 27 30 29 30 29 30 25 24 27 25 26 24 24 23 19 18 18 18 20 21 25
31 15 8 9 9 8 9 9 10 12 16 18 19 19 19 19 20 18 17 19 21 26 26 26 27 30 29 31 24 28 28 21 22 21 20 22 17 16 15 16 15 13 18
14 9 7 9 10 6 10 12 15 18 18 21 21 19 18 17 15 17 18 19 21 18 23 23 24 26 29 24 24 24 20 20 19 20 20 22 19 17 16 12 8 11 14
12 10 14 8 8 7 9 10 13 17 21 20 20 16 15 15 21 19 18 15 17 19 19 17 20 26 18 19 21 17 12 11 16 22 27 23 23 20 19 18 10 10 12

GFSMW_850_spd_012.txt.gz
Wind_Speed
7 7 17 19 17 12 9 12 14 15 17 19 21 22 24 23 25 26 28 26 25 26 25 22 21 21 20 17 15 15 15 14 14 19 21 22 20 19 26 17 20 21 18
16 14 13 10 7 5 7 9 12 14 15 18 20 22 24 25 26 25 25 27 29 29 28 27 28 24 22 20 19 18 18 15 13 18 20 17 30 24 27 32 28 26 25
13 10 6 2 4 5 7 8 9 12 14 17 19 22 26 30 32 32 31 31 30 34 33 32 31 29 27 25 24 23 22 18 17 17 15 14 16 38 33 33 30 26 31
8 7 4 4 4 4 6 8 9 13 15 17 21 24 27 31 33 35 34 32 35 32 32 31 31 29 27 25 24 23 21 19 20 17 18 21 25 30 36 35 33 34 33
7 6 5 3 4 8 9 9 11 13 14 18 22 28 31 34 34 35 36 36 36 35 31 30 33 31 29 26 22 18 17 20 15 12 16 22 29 33 35 39 35 41 36
5 4 4 8 9 7 8 11 11 9 12 18 22 28 31 35 38 39 40 39 41 40 38 32 36 34 31 31 30 28 25 21 23 24 25 29 35 34 33 34 38 35 40
9 7 7 7 6 7 8 7 9 15 19 26 28 33 34 36 35 35 37 39 43 40 38 31 32 33 31 32 29 25 23 25 27 29 24 31 35 34 34 35 37 35 32
5 1 0 2 3 2 6 12 16 22 24 26 33 38 39 33 32 34 34 35 35 29 30 30 29 26 20 24 27 26 29 32 23 23 30 34 35 35 35 35 34 37 34
9 13 12 10 6 10 14 17 21 27 32 39 41 33 31 33 34 32 29 27 29 31 29 30 25 30 34 30 31 23 17 18 24 30 31 32 33 34 34 35 33 33 32
12 9 9 3 6 12 19 27 33 37 38 33 28 29 31 31 28 23 14 18 26 26 21 19 16 23 26 16 16 17 22 27 30 32 34 36 36 35 33 33 33 32 35
8 11 11 13 20 26 29 33 36 32 33 29 29 30 29 29 27 20 19 18 19 16 22 22 19 17 12 13 18 24 27 30 33 34 36 38 37 37 36 35 36 36 35
10 13 19 24 29 31 33 33 34 31 31 32 35 29 24 22 16 13 12 13 15 18 13 13 12 13 16 19 23 28 30 33 35 36 35 36 34 35 36 36 36 37 38
17 20 27 30 31 35 31 35 31 28 30 33 29 26 21 15 13 13 13 14 13 10 11 12 16 18 21 27 29 30 33 33 35 35 35 36 36 38 38 37 37 38 39
20 25 31 34 32 33 33 31 30 28 33 34 25 14 11 11 11 11 10 10 9 7 13 16 20 24 27 29 32 32 33 36 33 34 34 37 40 42 44 44 44 44 45
20 27 32 35 33 33 31 32 27 32 37 31 25 19 16 15 12 9 9 10 17 16 15 22 25 26 29 30 32 34 34 34 38 40 43 45 46 47 47 46 47 44 45
24 35 32 34 32 31 29 26 30 34 36 29 21 21 18 16 17 15 13 12 12 13 19 24 26 28 32 32 29 30 33 38 43 44 41 36 32 31 30 31 32 33 35
32 39 33 32 31 31 27 32 32 31 18 14 14 15 13 12 12 7 4 8 13 19 24 26 29 32 28 29 31 35 34 37 35 34 33 32 32 32 33 35 35 33 33
36 35 33 31 32 29 32 32 24 10 11 9 8 7 6 7 4 6 10 17 21 24 27 30 29 30 32 32 31 34 35 33 31 30 32 35 36 36 35 35 35 36 36
30 31 26 31 28 30 31 25 15 10 9 9 8 6 3 8 13 19 20 21 23 27 29 28 31 29 29 32 34 32 28 28 30 33 32 31 32 32 32 32 34 37 39
31 27 26 24 27 30 26 18 13 11 5 5 8 10 12 18 17 19 21 23 25 25 28 27 25 29 33 29 25 23 23 28 29 30 29 30 30 28 28 29 30 33 34
24 24 25 27 31 21 15 6 6 6 6 9 14 16 16 18 19 21 21 21 25 25 24 26 28 28 23 24 21 21 21 24 28 30 32 31 27 27 27 26 26 29 29
32 31 33 25 16 16 9 8 6 9 12 13 14 16 18 20 20 20 21 22 21 22 25 28 28 24 23 22 24 19 20 21 24 27 28 28 27 28 25 24 22 23 24
35 26 15 14 13 8 9 10 11 9 15 15 17 21 21 20 20 22 20 19 21 22 25 24 26 26 26 29 21 20 21 20 21 23 23 22 24 21 20 20 19 21 23
21 18 15 14 9 10 6 9 13 14 16 19 22 24 21 21 19 17 18 19 19 19 20 25 25 25 29 26 21 25 23 19 16 18 22 20 19 13 14 12 9 8 12
20 17 13 11 7 7 10 15 15 14 17 21 22 21 19 17 15 18 16 15 15 16 21 21 21 25 28 22 22 24 18 16 17 19 19 23 20 19 19 14 10 10 12
12 10 10 13 15 14 14 14 16 18 19 20 21 17 15 14 18 18 16 13 16 17 18 15 19 23 17 19 22 18 13 14 13 13 18 23 21 20 20 19 17 14 13

GFSMW_850_spd_015.txt.gz
Wind_Speed
6 11 21 20 19 17 12 8 8 8 10 10 12 15 19 22 24 22 22 22 23 26 27 27 27 26 26 25 25 23 24 23 21 20 22 22 22 21 20 22 23 22 20
8 5 5 8 9 6 6 7 9 11 11 12 12 16 20 23 27 28 28 29 28 28 29 32 32 33 32 31 30 30 28 27 23 21 20 16 20 25 25 27 29 30 27
13 12 9 6 5 5 5 8 12 13 14 15 16 17 20 24 28 30 32 32 34 35 34 35 36 38 38 37 35 33 31 29 27 26 19 9 10 21 29 30 35 34 33
11 9 7 5 9 10 10 12 14 15 15 17 18 21 25 31 31 33 35 36 36 39 40 40 39 41 41 40 36 32 32 32 30 27 22 17 14 9 18 29 34 36 37
5 6 8 9 8 7 10 12 14 14 15 14 16 23 30 31 34 35 38 38 40 41 42 41 41 42 41 36 34 35 34 33 29 23 18 18 17 19 21 28 38 41 38
5 7 6 7 9 11 12 13 12 10 11 19 25 31 32 36 41 43 43 37 36 34 34 36 40 42 41 36 35 32 28 25 25 22 24 22 17 20 25 30 35 36 40
13 11 11 11 10 8 6 7 10 14 20 25 27 35 37 42 43 38 32 33 35 36 38 34 39 40 38 39 37 30 25 21 24 24 22 24 27 20 26 30 35 35 37
9 6 2 2 2 4 9 13 18 23 27 33 37 37 34 33 32 32 32 32 31 32 30 23 28 31 30 25 20 20 22 28 25 29 21 20 22 25 25 26 29 36 32
11 8 4 4 6 11 17 22 27 31 33 31 30 29 29 31 31 30 30 31 28 25 23 23 25 22 17 18 20 25 21 19 15 17 21 23 25 27 27 28 30 29 33
9 9 8 10 15 24 23 27 28 29 30 29 29 32 36 33 26 26 28 27 24 21 23 24 21 21 21 26 21 16 11 16 20 22 26 28 30 31 32 32 31 32 35
9 15 21 22 27 28 27 26 28 30 29 27 30 35 37 29 27 26 26 26 18 18 14 16 22 22 8 9 11 14 17 21 24 27 30 33 32 33 33 32 31 31 33
19 25 24 26 28 30 29 31 29 33 32 30 34 41 36 28 28 22 17 15 13 16 21 19 11 8 10 14 17 20 25 26 28 31 31 33 34 35 34 33 34 34 35
26 30 26 27 27 31 28 31 31 34 32 34 40 42 37 24 18 15 14 14 12 9 11 10 11 12 14 19 22 25 28 30 31 32 33 34 32 34 34 33 35 36 38
27 26 25 31 31 30 31 32 33 33 36 40 40 35 27 21 16 14 10 7 8 9 8 15 15 18 22 23 26 30 31 34 34 33 33 34 36 39 41 43 45 46 46
26 22 28 34 32 31 34 35 33 33 38 38 36 24 19 16 14 16 15 13 11 16 15 18 20 23 26 29 30 32 30 30 33 36 39 41 41 40 37 35 36 34 36
26 27 31 32 35 33 34 33 31 35 35 27 20 16 15 14 8 10 17 18 9 11 15 19 23 27 29 30 28 29 32 35 37 37 38 39 35 33 32 31 31 31 32
24 28 34 38 35 34 34 30 32 31 20 14 13 10 8 8 9 10 12 12 13 16 19 22 26 30 29 30 30 30 31 35 36 36 35 33 32 33 35 35 34 34 35
27 31 34 36 37 35 31 32 30 25 18 15 13 13 12 11 10 13 17 17 18 20 24 27 28 29 30 29 31 33 33 33 33 30 29 30 31 30 30 30 34 34 34
28 31 31 33 33 35 35 31 25 19 13 9 7 7 11 16 17 19 18 21 23 24 25 27 28 28 30 31 30 28 28 29 29 27 26 28 29 27 27 28 30 32 34
23 29 33 34 35 35 21 19 19 7 10 9 11 14 15 16 18 21 23 22 23 25 26 26 27 29 30 25 25 24 26 28 27 27 27 28 28 29 26 28 31 35 34
33 37 36 29 22 20 18 21 7 9 7 13 16 14 17 20 23 23 23 24 25 24 24 27 29 26 24 24 23 24 20 23 27 27 27 29 30 29 27 29 34 32 30
33 30 28 23 20 17 14 17 11 13 9 17 16 19 22 23 23 23 23 22 23 25 27 27 27 27 22 22 27 20 19 21 22 24 24 27 29 29 30 26 24 24 26
28 27 26 24 23 17 13 11 9 13 18 16 21 23 24 22 22 21 21 23 23 24 25 26 29 28 27 28 24 21 22 23 19 20 23 26 27 22 19 18 17 16 16
27 24 20 15 9 7 7 11 15 17 19 19 23 24 24 21 19 19 21 21 21 24 24 26 28 28 30 30 24 26 28 21 20 22 22 21 17 14 15 14 12 11 10
20 20 18 17 16 16 15 16 15 14 19 20 21 22 21 19 19 20 21 20 20 21 24 25 24 27 30 26 25 27 24 20 20 20 18 19 16 15 15 15 15 13 11
20 18 15 15 18 19 20 17 17 18 19 21 22 22 20 19 19 22 23 18 20 21 20 21 20 24 21 22 24 23 18 17 17 15 16 18 17 18 18 18 18 17 16

GFSMW_850_spd_018.txt.gz
Wind_Speed
13 16 19 19 14 17 16 12 8 7 10 10 10 11 13 15 17 20 22 22 25 29 30 31 30 30 30 28 27 27 27 27 26 25 28 29 28 26 23 18 19 17 19
8 10 10 6 3 6 8 9 9 11 13 13 14 17 20 22 24 26 28 28 28 29 33 36 38 38 37 36 34 34 35 32 31 31 30 29 29 31 26 24 22 24 24
10 9 8 6 3 4 6 7 9 12 16 17 19 21 24 26 27 29 30 29 33 35 36 38 41 43 43 43 42 41 41 39 36 35 29 13 18 23 22 23 27 30 29
5 3 0 2 4 6 8 11 14 16 16 16 16 18 21 26 31 33 33 34 34 36 37 38 38 40 46 49 48 47 44 41 39 37 35 35 35 23 24 27 24 24 31
5 6 7 7 8 10 11 13 11 8 8 9 13 21 28 32 35 39 41 42 37 30 29 30 31 32 37 45 52 49 43 42 40 37 34 31 27 22 19 20 24 26 28
11 9 8 7 6 7 7 7 8 11 13 17 23 28 34 38 41 41 38 36 35 36 36 35 35 35 34 38 41 41 39 37 35 32 29 25 18 12 13 18 28 31 38
9 8 8 6 5 6 8 11 15 19 24 29 32 34 34 33 34 35 36 37 35 35 35 33 31 30 29 29 26 27 26 23 23 23 20 21 20 20 20 22 25 29 33
13 12 11 11 11 13 18 22 26 29 31 31 30 28 28 30 34 37 35 32 31 34 31 29 24 21 20 19 16 15 16 16 17 16 19 18 18 15 15 17 23 30 31
14 14 13 16 22 24 26 27 27 27 26 27 26 27 30 35 39 36 32 27 28 31 28 22 15 14 13 13 14 15 22 15 12 14 15 14 13 14 16 20 23 24 29
11 16 22 22 19 21 23 24 24 25 26 29 30 33 38 41 39 37 27 24 27 27 20 15 12 11 14 19 24 24 14 15 14 14 15 17 19 22 24 26 28 28 29
15 21 24 22 20 24 25 26 26 30 32 34 34 38 40 42 41 31 24 23 19 14 8 8 13 20 22 11 8 11 12 14 17 20 22 25 26 28 28 29 29 29 29
25 25 27 27 23 31 29 30 31 34 33 35 36 41 41 44 33 24 17 9 6 8 9 13 10 9 10 11 14 16 19 21 23 26 28 29 30 32 31 30 31 31 30
30 26 30 26 26 29 30 30 30 34 34 33 38 42 42 34 24 15 9 8 10 15 16 19 14 14 16 16 19 21 23 26 28 30 32 31 30 31 31 32 34 36 38
27 26 26 26 28 30 31 32 33 34 32 33 37 37 32 25 16 11 12 13 14 13 15 16 17 17 17 20 23 25 28 31 31 31 31 33 34 36 37 37 38 37 36
22 22 24 25 27 31 35 35 34 31 31 35 33 25 21 19 18 16 15 13 17 16 12 15 17 20 24 27 29 30 30 31 33 34 34 35 34 35 34 33 33 32 32
20 26 26 28 32 37 37 35 31 33 32 35 24 18 17 14 12 13 15 15 16 18 18 18 19 24 27 29 29 29 30 31 33 35 36 34 33 31 28 27 26 28 30
20 24 28 33 35 36 37 36 36 31 32 27 23 17 13 13 13 15 15 18 20 18 19 22 26 28 28 28 29 30 32 32 31 31 31 30 29 27 26 26 26 26 27
25 26 29 34 40 42 40 36 30 28 29 23 17 15 15 16 17 19 19 20 20 23 25 25 26 27 27 29 31 30 29 28 29 29 29 27 26 25 24 25 28 29 30
24 26 33 36 36 31 29 27 26 24 17 15 13 14 17 18 19 20 22 24 24 23 24 25 25 27 30 29 27 26 28 29 29 28 23 23 23 24 24 26 29 30 30
23 31 34 33 31 27 22 22 23 17 14 11 14 18 18 19 22 25 24 23 24 24 24 25 26 27 27 27 25 24 29 27 26 25 26 22 23 24 25 28 30 33 29
26 31 31 32 26 22 21 19 19 13 15 13 19 17 22 23 25 24 23 23 23 24 25 27 26 25 26 25 23 25 22 23 26 27 25 23 24 28 32 28 27 29 27
27 29 29 28 27 21 19 17 14 10 15 18 19 20 24 25 25 24 22 22 23 24 24 26 28 27 27 23 26 23 21 21 25 21 22 24 26 30 26 23 22 20 20
26 27 24 22 19 17 19 21 19 18 16 19 21 24 25 24 23 22 23 24 24 24 27 28 31 32 30 28 26 23 25 25 19 19 23 23 23 23 18 16 14 12 11
26 25 22 17 16 14 14 18 21 21 18 19 22 22 24 23 22 22 23 24 23 25 26 29 29 30 31 30 27 29 28 24 20 21 20 20 20 16 14 13 14 13 12
26 23 20 19 18 20 20 22 22 19 20 20 20 22 23 23 23 21 22 23 21 23 26 25 27 27 29 27 25 26 26 20 20 17 17 17 18 17 15 13 13 14 13
25 24 22 21 21 22 23 22 20 20 19 19 20 22 23 22 21 22 25 20 20 23 21 22 22 21 22 22 23 25 21 17 16 14 14 17 19 20 20 20 15 14 17

GFSMW_850_spd_021.txt.gz
Wind_Speed
4 9 14 20 18 12 15 15 13 9 10 11 11 12 13 16 17 17 21 23 24 25 25 28 30 33 35 35 34 34 33 32 30 30 29 31 30 29 28 27 27 25 21
12 12 12 11 4 2 5 10 11 13 14 15 16 18 20 21 23 24 25 28 30 30 30 32 33 34 37 39 41 41 41 39 37 36 26 21 23 26 28 28 29 27 25
11 10 7 6 4 5 8 10 12 13 14 15 17 18 19 19 21 24 30 31 32 33 35 37 38 38 40 42 42 42 45 47 44 42 34 18 23 20 22 24 27 29 25
6 6 4 2 2 3 6 8 9 11 11 10 10 13 18 23 27 30 33 36 36 34 32 31 32 33 34 36 36 39 42 44 45 38 46 44 39 25 25 23 24 27 27
10 8 7 7 7 6 5 5 5 6 9 13 19 25 29 33 36 36 36 36 37 36 36 35 33 33 33 35 37 38 39 39 41 40 36 37 39 35 28 30 21 23 27
8 5 6 5 7 9 8 9 11 15 20 24 29 34 38 40 38 38 39 40 40 39 35 34 34 34 32 31 30 32 33 32 28 29 29 29 27 24 15 16 21 19 19
16 15 14 13 13 13 15 17 20 24 30 33 36 35 33 31 32 36 39 39 37 35 33 31 29 27 25 23 20 18 16 14 17 22 23 24 20 18 16 16 16 13 16
16 15 17 18 19 21 23 25 28 29 32 31 25 24 25 28 33 37 39 38 35 32 30 27 26 22 18 14 12 11 11 13 13 13 11 12 11 11 13 14 14 15 17
12 18 19 21 23 22 24 26 28 24 21 23 24 24 26 32 35 39 40 37 30 28 25 21 15 11 10 11 14 16 18 21 15 12 13 13 14 14 15 17 19 16 22
16 21 20 21 22 19 21 22 21 22 22 24 25 26 29 34 39 43 37 26 23 18 11 7 7 8 11 13 15 11 10 12 12 12 11 12 14 16 17 18 16 17 22
15 17 15 17 17 13 22 24 24 25 26 29 28 29 32 38 42 39 30 20 13 5 6 12 12 14 10 6 8 8 10 12 14 15 16 18 20 21 19 19 20 22 22
20 20 19 25 25 25 24 24 24 27 29 32 31 32 36 39 38 28 22 9 5 9 10 14 16 15 14 13 14 15 15 16 18 21 23 25 24 23 21 20 21 21 22
21 20 19 29 26 26 24 26 29 31 31 29 30 32 34 32 25 21 19 14 15 16 17 17 18 17 15 16 16 18 21 23 25 26 26 26 25 24 20 22 24 24 25
17 21 21 21 18 20 27 30 32 32 30 31 30 31 24 22 21 15 14 16 17 15 17 14 15 17 17 20 23 26 28 29 29 29 30 29 27 25 24 23 23 23 24
16 16 16 16 20 27 32 37 37 34 30 26 27 22 22 18 13 12 11 12 14 17 19 20 19 20 21 24 28 30 30 29 29 29 29 29 29 29 28 25 24 24 25
12 13 14 21 26 32 34 33 31 28 24 26 26 20 19 11 14 13 17 17 18 20 19 17 20 23 26 26 26 26 27 29 29 27 26 26 27 25 25 24 23 23 25
13 17 20 26 30 32 32 32 30 26 25 24 17 15 14 14 14 16 19 20 21 21 21 23 24 25 26 25 26 28 27 26 25 26 25 24 22 22 20 21 22 23 25
16 20 22 28 32 33 31 26 24 24 19 13 10 13 15 16 16 18 22 24 23 22 23 24 24 24 25 26 26 26 25 23 23 25 22 21 20 20 20 20 22 23 24
20 20 25 31 31 30 26 23 19 19 14 13 11 15 15 18 21 23 26 24 24 24 24 23 24 26 25 24 25 23 21 22 24 20 19 20 21 19 19 19 24 27 28
20 23 27 30 28 24 21 19 19 22 17 14 14 16 19 20 23 25 24 24 23 23 23 24 23 23 24 24 22 21 20 20 20 20 19 21 18 18 19 22 28 29 26
22 23 27 27 26 21 19 17 17 18 16 17 18 18 20 23 25 24 23 23 22 22 22 23 23 22 23 23 21 20 18 18 20 21 20 19 20 20 21 25 21 22 25
24 24 28 26 23 19 18 18 16 16 18 19 20 20 22 23 23 23 21 21 22 23 24 25 23 20 23 22 22 19 19 19 21 19 18 20 23 21 20 16 17 18 18
23 26 27 26 22 18 17 19 19 21 20 20 18 20 19 21 22 22 21 22 22 22 22 20 21 22 21 19 21 22 23 22 18 16 17 19 19 18 14 11 12 13 11
26 28 27 26 25 20 19 22 21 21 19 18 19 18 19 20 21 20 19 20 19 19 19 20 21 22 21 21 21 23 22 21 17 18 14 14 14 13 12 10 9 10 11
29 30 29 26 26 23 24 25 22 19 18 18 18 17 19 20 20 19 19 20 18 20 20 18 19 21 20 21 22 23 23 18 17 13 11 12 14 15 15 11 7 9 12
31 29 27 26 25 25 26 23 20 19 17 17 16 17 19 20 20 19 21 17 16 19 18 18 19 18 17 19 20 22 18 15 12 9 11 13 15 17 18 18 15 11 12

GFSMW_850_spd_024.txt.gz
Wind_Speed
6 2 8 13 11 10 8 5 5 11 14 11 9 7 8 10 11 12 16 18 18 22 28 30 30 29 25 26 27 26 27 26 25 24 26 26 25 25 24 22 21 21 19
14 14 12 9 5 2 3 4 7 10 11 11 13 15 15 14 16 14 14 16 25 32 34 34 32 27 26 26 27 28 28 30 28 30 28 31 30 29 26 26 26 24 22
13 13 12 10 7 4 2 1 3 6 9 9 6 7 8 10 11 19 23 31 35 33 30 30 30 31 30 25 26 26 27 31 29 30 30 25 32 29 27 23 23 25 23
10 10 10 9 8 7 7 6 6 7 9 9 11 16 15 17 24 23 24 36 36 34 30 28 27 28 26 26 26 25 26 26 32 29 34 36 38 37 30 24 22 24 25
10 9 10 11 11 10 9 9 9 10 13 15 19 28 27 26 22 35 34 24 22 24 24 26 33 33 29 26 27 25 24 25 28 29 29 31 31 32 31 37 24 23 24
13 12 11 10 10 10 11 11 11 11 18 22 24 28 23 20 18 20 22 23 26 26 25 25 31 30 29 25 23 18 13 13 16 19 18 18 17 18 24 28 32 27 22
11 10 9 9 9 11 12 13 14 15 17 19 20 16 16 17 19 21 22 28 30 29 28 28 24 17 17 17 16 17 15 16 15 16 18 20 20 22 22 20 19 14 17
5 7 8 9 10 10 12 14 15 16 16 16 17 21 24 21 21 22 27 29 29 27 23 18 12 10 8 8 9 15 17 16 12 11 10 8 7 6 6 7 7 10 13
4 8 10 11 12 13 13 16 19 20 19 18 19 18 19 22 23 25 29 29 28 21 17 11 8 8 10 14 12 14 13 11 9 9 12 12 13 15 13 12 10 11 14
7 11 13 13 14 14 14 15 16 17 17 17 18 18 18 20 22 25 26 24 19 12 7 8 9 10 15 14 9 5 6 7 9 9 11 12 12 11 12 12 14 15 18
9 11 11 11 13 14 15 14 15 17 17 18 19 19 20 21 21 21 19 16 9 8 13 14 15 17 15 13 11 11 11 11 11 12 13 14 17 18 18 18 19 21 21
10 10 11 12 15 16 14 15 16 18 19 20 20 21 22 20 18 17 13 10 7 15 18 18 17 19 14 14 13 13 12 12 14 16 17 19 19 20 20 20 22 23 23
13 12 13 15 16 14 14 17 20 22 23 22 20 20 21 18 16 13 10 11 12 13 14 11 13 14 13 11 11 13 15 16 18 19 19 19 19 20 20 21 23 23 24
15 14 14 16 14 13 17 20 20 20 20 19 19 21 16 18 15 12 12 11 11 11 12 15 17 17 17 15 14 15 18 19 19 19 19 20 20 21 21 22 23 24 25
15 12 13 13 13 15 18 18 19 19 18 18 20 18 13 15 16 12 13 12 15 16 17 18 15 14 16 17 23 24 20 20 21 21 21 20 21 26 28 25 23 24 26
12 10 9 12 14 16 19 19 18 18 18 18 17 11 10 10 11 12 13 13 15 17 16 16 17 17 17 21 24 25 23 21 21 21 20 21 22 23 24 27 27 24 24
10 10 13 13 16 18 20 19 18 17 18 16 14 11 11 10 10 11 14 16 18 17 17 17 17 17 16 23 25 26 25 21 21 22 22 23 22 23 22 22 24 26 25
9 12 12 16 17 18 19 19 18 17 16 15 14 12 12 11 12 14 15 18 17 17 18 17 16 17 17 25 25 26 24 20 21 22 23 22 22 20 21 20 20 21 22
9 14 14 15 17 20 19 19 17 16 16 14 12 13 15 15 14 16 17 17 17 17 17 16 18 18 19 22 25 25 20 21 23 21 20 20 21 22 22 21 23 22 23
16 16 17 17 19 20 18 17 16 14 13 10 12 14 14 15 16 16 16 16 16 17 17 17 18 19 19 20 21 20 20 21 21 21 20 21 22 20 19 20 23 23 25
17 19 18 19 21 19 16 15 15 15 13 14 15 15 15 15 16 15 15 16 16 17 20 20 19 18 19 22 20 20 19 20 21 21 21 18 19 21 24 23 23 22 22
20 20 21 22 23 19 16 17 17 17 17 16 15 14 14 14 14 15 15 16 16 18 20 20 19 16 20 20 19 22 19 22 22 21 19 19 23 23 21 18 16 16 17
22 22 23 26 24 22 20 20 20 18 16 14 13 14 13 13 14 16 16 16 16 16 18 17 18 18 18 18 21 21 22 21 21 18 19 17 19 18 13 13 12 11 11
26 26 26 27 27 23 22 21 20 16 14 14 13 13 12 14 14 14 13 14 15 15 15 17 18 19 19 18 19 20 21 21 17 19 14 15 13 11 12 11 9 7 9
25 25 24 25 26 25 24 21 19 15 14 13 12 12 11 12 13 12 12 12 12 16 15 15 16 18 18 18 20 21 22 19 18 14 11 10 11 10 11 11 9 8 8
27 25 25 26 27 27 25 21 15 12 14 12 11 11 13 11 10 11 12 16 19 18 16 16 18 15 16 18 18 19 18 15 12 8 9 10 12 11 12 13 13 12 11

GFSMW_850_spd_027.txt.gz
Wind_Speed
8 7 3 3 2 2 1 1 2 6 3 5 6 7 7 8 9 10 12 11 11 12 16 16 18 22 23 24 26 28 29 31 30 33 33 35 33 34 33 30 28 27 26
14 13 13 13 12 9 8 6 4 3 2 2 3 6 8 7 8 6 9 12 16 27 27 22 22 21 22 24 24 25 29 31 30 32 33 36 35 34 38 38 34 34 31
12 12 13 13 13 12 11 8 7 6 4 4 4 5 7 8 11 14 20 19 26 23 21 21 22 22 22 23 25 25 27 30 32 30 32 30 34 31 32 33 37 31 33
10 11 11 12 11 10 9 7 6 5 6 6 5 8 10 15 18 19 20 18 18 19 20 21 20 22 22 24 24 23 26 26 31 30 31 34 37 38 37 39 29 35 33
10 10 9 9 8 8 7 6 6 7 8 10 13 12 13 15 16 16 17 18 17 18 20 20 22 24 24 23 22 23 23 22 25 27 27 31 34 26 24 25 30 31 28
10 9 7 6 6 7 7 8 9 10 11 12 12 13 13 15 16 17 18 17 20 21 22 23 23 23 21 20 19 19 17 21 19 16 18 22 23 24 21 19 24 26 26
6 4 4 4 5 7 9 10 11 13 14 14 14 14 15 16 16 18 19 22 24 25 26 24 22 19 18 19 18 16 14 20 24 23 23 22 23 24 22 21 22 21 24
2 3 5 6 9 10 11 13 15 16 17 16 16 16 16 17 18 19 21 23 24 25 22 20 18 16 16 14 13 16 23 25 24 21 17 14 14 12 11 9 8 9 10
4 6 8 8 10 12 13 14 16 17 18 18 18 17 18 18 20 21 23 24 24 23 18 21 17 16 19 21 24 20 16 13 12 13 12 13 13 13 12 11 11 10 9
8 9 11 11 12 14 15 15 15 16 17 16 17 18 19 20 22 23 23 23 21 19 20 20 21 22 25 24 22 18 16 16 14 14 12 14 14 14 14 14 13 12 14
10 12 13 13 14 14 16 15 15 15 16 18 20 20 21 21 21 22 20 18 18 17 14 17 20 23 18 14 13 13 14 14 16 15 16 16 18 20 20 19 20 20 20
11 11 11 13 13 17 15 14 15 17 19 20 20 19 19 20 19 16 22 18 15 15 15 16 14 11 14 14 16 17 16 17 18 20 21 22 22 21 20 21 21 22 23
13 15 13 14 16 16 14 15 17 18 19 19 19 18 19 19 19 20 16 15 14 14 15 13 14 16 19 20 19 19 20 20 22 23 23 23 22 22 21 21 23 23 23
16 14 16 18 20 15 14 16 17 18 17 18 18 19 17 16 15 18 20 13 15 16 17 19 19 20 20 20 20 18 18 21 22 23 23 23 23 23 23 23 23 23 24
20 18 16 18 15 14 16 17 19 18 18 18 18 18 20 14 15 14 14 15 16 17 19 21 21 20 20 22 21 25 26 23 24 24 24 23 23 26 29 26 24 22 23
18 13 13 14 14 16 18 19 19 18 17 18 18 16 13 14 15 14 14 15 17 20 21 21 20 20 20 23 26 30 31 26 24 24 24 24 25 25 24 25 27 27 25
17 11 12 13 16 17 18 20 19 19 19 18 17 17 15 14 13 14 16 17 20 21 21 21 20 20 20 24 27 32 33 25 23 23 24 24 24 25 23 22 26 27 26
11 12 13 15 17 20 20 20 21 21 19 19 18 16 15 15 15 17 18 20 20 20 20 20 20 20 20 25 31 34 30 22 23 23 23 24 25 25 25 23 23 22 22
15 13 16 19 21 22 22 23 24 22 20 19 16 16 14 16 17 18 19 19 19 20 20 19 19 20 21 24 29 31 22 22 24 22 22 22 23 24 24 26 26 24 24
17 20 21 23 24 25 25 25 25 24 22 20 18 16 18 17 18 18 18 18 19 20 19 20 23 21 22 22 27 26 23 25 23 23 22 22 23 24 23 24 23 26 26
20 22 24 25 26 26 27 28 28 28 26 22 17 18 18 17 17 16 16 19 19 19 21 26 25 22 20 23 23 24 21 24 25 25 25 22 22 18 24 27 29 26 24
24 25 27 28 29 29 30 31 30 30 26 20 19 19 17 15 15 15 17 19 18 17 23 23 23 21 22 20 21 21 24 24 25 25 23 23 26 27 25 22 19 18 19
27 27 28 29 29 29 29 32 28 27 20 18 20 17 15 14 14 16 17 17 17 17 20 19 21 21 20 19 19 24 24 23 24 21 24 22 19 20 15 13 14 12 8
27 28 28 29 30 30 31 31 32 24 21 20 18 14 14 13 14 14 15 14 14 16 16 18 19 20 20 20 20 24 23 24 22 22 15 15 15 13 12 12 11 9 8
28 29 29 29 30 32 33 32 32 22 18 17 14 12 12 12 15 12 13 14 15 19 21 18 17 18 19 20 23 22 24 23 21 16 13 13 13 11 12 12 11 10 9
30 30 31 30 32 32 30 29 26 17 15 16 11 12 12 14 14 11 12 15 18 19 21 22 21 24 22 21 20 20 20 17 16 11 12 12 13 13 13 13 13 12 13

GFSMW_850_spd_030.txt.gz
Wind_Speed
18 14 13 10 6 7 6 6 7 11 8 3 5 9 7 7 7 7 13 15 11 20 23 28 30 26 25 23 26 28 29 31 28 31 33 34 35 34 34 37 38 36 35
17 18 16 12 10 10 9 8 1 3 5 1 5 6 8 9 8 9 10 15 14 20 25 23 23 21 25 28 27 24 26 27 26 27 31 34 35 30 30 36 39 42 42
14 14 15 14 13 13 11 9 7 5 3 4 2 3 3 6 10 12 18 21 20 20 17 18 20 21 23 25 26 27 27 30 29 25 27 31 30 30 28 29 28 25 37
13 12 12 12 10 10 10 7 5 4 7 7 4 7 8 10 15 19 16 18 17 18 16 19 20 22 24 27 31 24 25 28 33 29 24 26 29 23 28 31 32 35 29
11 11 10 9 8 7 6 6 5 8 9 11 12 13 12 15 14 14 17 17 14 17 20 21 23 27 30 26 19 20 21 21 22 23 27 32 34 34 24 29 27 26 33
10 9 7 6 7 7 6 5 6 7 10 13 13 12 14 15 15 16 16 15 20 21 23 25 27 26 20 21 22 22 27 27 30 27 29 28 27 27 28 28 36 33 31
5 4 4 4 3 4 6 7 9 10 11 12 12 13 14 14 15 17 19 22 24 27 28 26 23 24 24 27 27 26 25 22 24 32 29 23 22 22 20 17 20 24 30
2 2 4 5 6 8 9 9 10 13 14 14 15 13 13 16 17 18 22 25 25 23 22 22 22 26 26 24 23 23 24 29 24 19 16 15 13 13 15 14 14 19 18
2 6 5 7 7 9 12 13 14 15 15 15 17 19 17 18 19 20 24 22 20 19 23 29 30 23 23 24 25 25 24 21 17 16 12 15 14 17 19 16 16 12 15
4 5 7 8 9 11 12 13 12 14 16 17 17 18 20 19 21 21 21 20 21 26 27 27 22 21 19 20 18 17 15 16 16 17 19 18 19 18 21 21 21 19 19
7 8 8 11 11 9 12 16 14 14 16 18 20 21 21 20 18 19 20 22 25 28 22 18 22 19 15 16 16 17 18 18 17 17 18 19 22 21 22 20 21 22 23
9 7 8 6 11 14 14 15 13 13 17 20 19 19 19 19 20 22 23 23 17 15 17 19 21 17 19 20 22 22 20 22 21 18 21 23 22 22 23 24 22 23 24
8 8 9 12 12 14 16 13 12 15 18 18 18 19 20 18 20 23 22 23 21 21 19 18 19 20 21 22 21 22 22 18 21 23 25 26 26 26 26 24 24 24 26
14 17 12 12 15 17 18 14 17 18 19 19 20 19 21 22 23 19 19 19 18 17 17 18 19 22 23 23 24 22 23 26 29 35 30 27 26 27 26 26 27 29 28
15 14 15 19 21 18 14 16 18 20 20 22 20 19 20 16 22 21 19 17 16 16 20 21 21 22 23 24 22 25 28 31 35 37 34 25 23 25 26 29 27 25 27
17 20 18 18 17 13 16 18 20 22 23 23 24 24 21 20 14 18 17 17 19 18 20 21 21 21 19 24 27 29 31 34 36 38 29 23 26 23 23 22 21 22 24
20 22 18 18 16 16 17 21 23 21 22 26 25 20 18 14 22 21 19 18 20 20 20 21 21 19 18 23 28 33 33 34 35 26 25 28 26 26 26 26 27 28 29
18 16 17 17 19 22 24 24 22 22 24 25 25 24 19 17 16 17 19 19 19 20 21 20 20 23 25 29 31 34 33 34 27 24 27 27 28 28 27 26 27 26 24
17 19 21 21 24 25 25 26 27 28 29 27 30 23 20 14 14 17 19 18 19 20 20 17 23 30 34 29 23 28 31 30 28 28 23 23 26 25 25 26 29 28 26
17 21 23 25 26 26 27 29 29 30 31 32 20 20 18 19 13 16 17 18 18 19 21 26 26 30 29 24 25 25 28 29 27 30 28 27 24 24 20 18 18 22 24
21 24 27 27 28 30 30 30 32 32 30 37 25 13 14 19 14 12 16 17 19 20 21 26 28 27 23 25 23 25 26 23 28 31 28 25 23 24 27 28 29 29 26
25 26 28 29 27 28 30 30 29 32 34 31 30 22 16 15 10 12 15 17 18 18 22 27 27 22 22 23 23 24 19 27 28 27 26 26 27 23 22 19 15 16 18
26 27 27 29 30 30 28 28 32 29 29 34 25 19 12 14 8 13 15 17 17 19 23 25 23 24 25 22 23 26 29 24 25 25 24 17 16 18 16 14 15 13 11
27 25 28 30 29 28 29 32 30 30 36 28 17 16 21 11 10 14 14 17 17 22 23 22 25 25 24 25 27 28 25 24 23 22 14 15 16 16 11 12 13 11 10
26 30 29 29 31 32 28 27 28 29 30 23 23 23 12 9 13 16 15 17 18 19 22 22 23 24 26 26 26 23 24 23 21 16 15 15 17 16 13 14 11 11 12
28 29 30 31 32 30 28 27 23 25 30 24 23 18 9 12 18 16 13 16 19 19 19 21 21 21 24 27 25 22 21 17 17 14 14 15 16 16 15 16 15 12 14

GFSMW_850_spd_033.txt.gz
Wind_Speed
19 19 19 17 13 8 4 6 6 5 8 3 4 5 8 5 4 9 13 15 13 15 19 22 22 23 23 24 25 27 29 28 26 30 32 31 30 31 31 28 30 31 35
16 14 9 7 4 2 2 3 6 7 3 3 4 8 11 7 3 5 5 8 12 13 15 16 16 18 20 22 24 27 29 32 27 26 30 28 33 30 26 24 24 27 24
18 16 15 14 11 9 7 4 3 4 3 3 5 7 6 7 10 11 14 15 15 15 17 18 19 19 22 24 26 29 32 31 28 25 22 19 21 29 31 32 31 30 30
17 13 11 10 9 9 6 7 8 12 13 13 14 12 13 14 15 17 20 21 23 23 22 19 20 23 26 30 30 26 22 24 25 23 21 23 27 19 28 25 28 31 31
13 9 6 8 9 9 8 6 6 10 13 15 17 17 14 14 14 14 16 18 19 21 23 26 32 31 29 25 22 21 22 24 28 29 30 32 32 31 30 35 32 39 37
14 8 6 7 8 8 9 9 5 6 8 8 8 9 12 13 14 16 18 21 24 25 28 32 30 26 24 25 25 28 25 26 23 25 24 28 27 23 16 22 31 34 35
12 13 10 9 7 5 5 3 4 8 12 15 16 15 15 14 15 18 21 24 26 30 33 34 31 28 28 28 22 22 25 23 25 26 28 21 17 14 14 14 19 24 32
7 8 8 6 5 4 6 11 13 14 11 12 13 15 17 17 16 19 20 24 29 32 32 26 27 29 23 20 21 22 21 24 22 21 15 16 14 16 16 16 18 23 23
8 5 5 4 7 7 5 5 5 8 11 15 17 19 18 20 22 23 24 24 22 22 25 29 30 27 22 17 15 14 15 15 16 15 13 14 14 16 19 18 18 18 24
3 3 2 3 1 3 6 10 13 14 14 15 20 22 24 26 24 23 22 24 25 27 29 26 21 22 22 19 17 16 17 19 18 18 17 17 18 18 20 21 22 24 24
6 2 2 4 6 7 10 10 12 16 18 18 21 26 25 19 21 24 26 27 31 25 22 21 21 23 21 19 18 18 19 19 19 18 15 19 17 19 20 20 20 21 21
7 6 7 9 8 8 11 14 18 23 17 22 27 23 22 22 25 26 25 30 24 21 20 21 17 17 17 18 18 17 19 19 20 19 21 21 25 31 29 25 25 26 26
15 13 10 10 11 15 20 23 20 17 21 24 21 22 22 23 27 29 24 28 21 18 16 16 16 18 21 22 22 22 23 23 21 23 26 31 32 32 29 28 28 29 28
15 15 18 19 22 26 18 15 17 19 22 26 23 24 23 26 30 24 23 27 21 19 18 20 20 20 22 22 22 21 21 25 27 30 31 32 32 28 24 25 26 27 29
17 19 17 20 22 18 13 16 17 24 28 27 27 25 25 30 28 26 21 21 17 15 18 20 21 23 23 22 22 26 30 32 34 35 34 33 27 20 19 23 23 23 24
15 19 20 21 17 17 17 19 25 29 25 24 28 29 30 30 31 25 18 16 17 18 16 18 20 23 24 26 28 31 35 36 36 35 34 31 28 23 22 23 23 21 22
20 19 18 15 18 20 22 25 25 30 31 29 28 33 25 24 22 16 17 18 14 16 14 19 21 22 24 26 31 35 32 28 28 29 27 27 24 23 24 26 27 26 24
17 17 18 20 22 22 20 19 21 23 25 28 29 24 26 24 24 19 14 12 15 15 18 17 20 21 25 29 32 27 26 29 28 28 26 27 26 23 24 25 25 25 25
14 18 21 21 18 21 25 28 30 32 34 28 32 33 31 30 18 14 11 14 13 15 15 16 21 26 28 31 26 26 27 27 29 27 26 31 26 23 21 24 22 20 21
18 18 19 20 25 24 26 31 33 32 24 29 26 30 32 27 16 19 17 8 13 14 15 19 22 26 30 24 23 26 28 30 26 28 34 28 24 20 21 21 24 29 29
19 20 22 25 23 27 31 33 26 23 27 31 31 37 33 28 21 7 10 9 11 14 18 21 25 28 23 23 25 27 27 26 30 34 30 26 22 22 20 19 21 21 17
20 23 23 23 26 31 28 24 27 24 28 32 35 36 29 12 10 14 9 11 15 17 20 23 26 23 24 23 23 25 27 27 25 25 24 21 17 18 16 16 15 15 15
24 21 23 29 29 28 24 30 24 26 32 35 32 29 17 21 13 10 10 11 16 20 21 24 25 25 24 24 26 28 24 25 22 20 18 14 13 20 14 10 10 10 9
20 26 29 27 28 29 31 28 29 31 36 31 31 23 22 13 8 9 13 16 19 17 19 22 22 23 23 25 28 28 27 24 19 19 14 15 18 15 11 11 9 10 11
25 27 27 30 34 36 34 27 26 26 29 27 30 21 15 11 8 12 17 14 14 17 19 19 20 21 21 24 25 24 25 22 19 16 14 17 17 16 15 15 12 11 11
26 28 30 33 33 34 32 29 26 29 25 28 25 10 8 9 13 15 13 11 14 16 16 17 19 19 20 22 25 22 20 17 15 16 16 16 16 16 16 16 14 14 14

GFSMW_850_spd_036.txt.gz
Wind_Speed
28 25 24 24 22 17 13 6 5 5 5 7 10 8 7 1 2 4 6 7 9 11 13 17 20 23 24 24 25 27 29 30 32 36 37 34 31 25 23 24 20 23 24
20 16 12 9 6 8 6 6 11 9 6 4 2 1 3 4 4 3 7 9 12 16 19 22 23 24 23 23 25 28 30 32 33 29 30 21 31 24 18 23 23 26 27
21 16 13 12 11 11 10 9 11 10 7 5 2 3 5 9 13 16 20 21 22 24 23 20 19 20 23 27 31 31 29 25 23 24 20 15 10 34 25 24 29 25 27
20 17 14 12 10 11 9 8 8 9 10 12 15 17 18 20 19 20 22 24 26 27 27 27 29 30 32 29 24 22 19 18 22 23 22 23 23 26 31 24 29 29 28
15 14 12 9 8 7 7 6 8 9 13 17 17 18 16 15 16 16 17 19 21 24 28 29 28 30 25 25 23 24 23 22 19 22 20 20 22 23 23 33 24 32 26
12 11 8 6 6 4 3 3 6 7 12 14 17 20 20 21 21 21 23 24 26 28 28 30 31 29 27 30 28 21 17 20 21 19 22 21 18 12 12 18 25 24 24
10 8 7 6 5 4 3 5 6 9 13 16 15 16 15 16 18 20 21 23 26 27 26 27 27 27 30 26 21 19 19 18 17 17 17 17 14 14 14 18 21 23 29
11 12 11 9 8 7 6 8 13 15 14 15 16 17 18 18 19 22 23 23 21 20 22 24 28 28 20 19 19 16 13 13 12 14 15 14 12 13 13 16 18 22 20
9 12 11 9 7 5 6 8 9 10 12 15 18 20 21 21 26 26 24 22 22 23 30 30 24 22 20 21 22 20 17 16 18 17 15 15 15 15 15 17 19 21 25
5 11 8 5 3 2 4 6 8 11 16 23 21 21 23 26 23 24 24 25 26 27 32 26 22 24 24 20 17 17 18 17 18 18 19 18 18 18 16 16 19 19 22
7 10 10 7 4 3 7 10 12 15 21 19 20 24 27 25 26 26 27 30 28 26 28 20 19 20 17 16 17 17 17 18 20 21 17 15 19 19 22 26 28 27 25
13 12 8 2 5 9 12 17 18 19 18 21 25 29 31 30 25 28 29 29 25 26 20 17 15 15 16 17 19 20 20 19 18 17 19 23 25 29 31 32 31 29 28
10 5 6 11 15 17 19 15 14 18 20 23 27 31 28 30 29 28 29 28 25 23 17 16 17 19 16 19 22 22 18 19 22 24 27 31 32 33 32 29 28 27 27
8 11 14 15 15 15 15 13 14 17 22 26 30 29 26 28 28 30 33 27 21 19 16 16 15 19 22 23 21 22 22 25 29 33 35 33 32 29 25 23 22 25 25
13 15 15 14 11 15 17 18 20 25 29 28 28 26 28 30 34 27 27 26 22 14 17 18 17 18 20 21 21 22 26 31 32 29 27 27 26 24 19 21 23 21 22
12 12 11 12 15 18 22 23 23 21 19 19 24 23 26 23 24 21 30 28 17 16 14 14 15 20 18 20 21 26 30 30 27 27 26 25 25 22 21 19 21 24 24
9 12 14 17 19 18 17 17 22 25 25 27 19 21 24 28 20 25 26 33 23 9 11 15 16 16 18 20 24 27 27 26 25 26 27 28 25 26 26 22 21 21 22
10 12 14 13 14 15 18 18 22 26 25 19 24 27 29 29 33 31 30 18 13 13 15 13 13 15 18 22 25 24 24 24 26 27 27 26 29 28 21 20 22 21 19
11 11 10 13 14 15 21 27 31 30 25 25 29 31 31 35 33 28 20 20 9 9 13 11 15 17 21 24 23 25 26 27 27 28 29 30 26 22 19 21 22 22 22
6 9 13 15 19 25 28 31 28 26 27 30 29 31 34 31 25 19 12 4 8 11 10 13 16 21 22 21 23 25 27 29 30 28 28 23 21 19 18 19 20 22 23
8 13 18 20 22 27 28 24 23 29 30 27 29 35 28 22 14 9 5 8 8 10 12 14 19 20 21 22 22 24 27 25 24 24 22 18 15 17 17 17 17 19 17
15 19 23 25 27 27 26 28 30 27 29 31 32 29 28 19 17 12 13 15 7 10 15 16 17 19 20 19 22 25 24 21 21 19 17 17 15 18 19 11 12 12 12
19 23 24 26 25 26 28 30 31 26 26 26 28 29 27 17 10 11 9 8 11 15 16 16 18 18 18 19 22 25 25 24 19 18 15 14 18 17 12 11 11 10 9
21 22 24 25 27 28 29 32 30 25 25 30 25 27 25 12 8 8 8 12 14 13 15 16 16 16 17 20 22 24 25 24 19 18 17 17 16 14 13 12 9 9 8
21 21 23 26 27 29 32 29 25 21 24 24 23 23 10 5 7 7 10 12 12 15 14 14 15 17 18 18 23 21 22 21 19 18 17 15 15 15 15 13 11 11 10
21 21 24 26 27 31 31 28 23 23 22 19 17 13 8 6 9 11 11 10 12 12 12 13 16 16 17 17 22 19 19 22 18 16 14 14 14 15 15 15 13 12 13

GFSMW_850_spd_039.txt.gz
Wind_Speed
27 25 21 18 18 20 21 21 15 9 5 3 4 3 5 6 6 6 7 9 12 13 16 19 21 24 26 27 29 32 33 34 37 40 38 36 30 20 21 25 23 21 21
22 20 19 18 15 10 7 8 11 10 7 5 5 2 2 5 9 12 15 17 19 21 23 25 26 25 25 27 30 32 33 33 31 30 32 19 32 17 10 23 24 24 26
19 15 12 12 13 15 14 13 11 8 5 4 3 4 5 11 18 21 23 24 25 25 25 25 24 26 30 31 30 28 27 28 28 25 21 16 11 31 22 28 20 24 28
18 17 15 15 13 13 10 7 8 7 7 8 9 10 13 18 21 23 23 22 20 21 22 25 27 27 28 27 25 27 27 25 24 22 20 19 22 23 22 20 29 26 23
17 16 14 13 9 6 5 7 8 11 11 12 13 14 14 16 17 17 18 19 21 23 24 23 25 26 26 26 28 26 19 16 16 18 19 19 19 19 18 22 15 24 22
15 13 10 6 3 1 5 5 6 8 10 12 14 16 17 18 18 18 19 21 24 25 25 25 24 26 28 28 22 19 18 17 17 16 16 17 14 13 11 18 27 25 26
11 7 4 3 3 3 3 4 7 9 11 13 15 17 17 17 17 17 20 23 22 22 22 23 25 30 28 23 21 18 16 14 13 12 14 14 13 14 15 17 21 23 26
3 6 7 4 5 6 4 7 11 12 14 16 17 17 19 18 19 23 23 23 22 21 23 25 27 26 22 16 17 17 15 14 13 14 15 17 16 17 18 17 19 24 21
9 7 10 8 6 7 8 10 11 14 15 15 16 17 20 22 25 24 22 24 25 27 25 24 25 21 17 18 16 16 17 17 17 18 18 19 20 18 16 18 13 16 21
6 10 10 7 5 5 6 9 12 14 15 17 18 19 22 27 28 27 22 25 27 28 28 26 26 21 18 16 15 16 17 18 16 17 20 22 22 19 18 22 22 19 26
10 12 11 4 6 5 10 11 13 15 15 16 18 21 26 28 25 25 25 27 29 30 28 28 24 19 16 16 19 19 18 20 20 21 20 17 18 21 25 29 30 30 30
14 8 5 3 4 8 11 11 10 13 15 17 21 24 26 25 25 25 28 28 29 26 23 22 20 19 18 20 17 19 23 21 19 18 21 24 29 32 33 33 32 31 30
10 5 2 6 8 9 9 10 11 15 15 19 23 24 23 21 23 28 26 25 26 21 27 28 20 17 21 18 20 22 21 22 22 25 28 31 31 30 29 27 27 26 25
3 4 5 7 6 6 7 8 11 14 17 20 20 19 23 22 27 27 25 25 24 30 34 19 15 21 16 18 21 21 22 23 27 30 28 27 27 27 26 25 23 24 23
4 3 4 5 5 8 10 12 14 14 16 23 27 30 27 27 24 28 23 23 28 30 31 22 19 13 15 18 20 21 22 27 28 26 25 25 25 24 23 22 24 24 26
2 4 4 6 9 10 10 13 17 22 26 30 29 24 23 27 31 28 25 28 29 30 28 18 10 16 15 16 18 22 27 26 25 26 25 26 26 24 23 25 27 25 24
2 1 5 7 7 11 15 18 21 25 27 22 19 22 26 27 30 33 27 25 26 23 12 15 14 13 15 18 21 25 25 24 24 26 27 27 26 26 28 26 21 19 20
2 4 4 6 10 13 16 21 24 24 20 19 25 27 27 31 35 28 23 18 17 14 11 10 11 13 16 20 25 24 23 24 25 26 27 27 26 23 20 20 22 23 22
2 0 5 10 13 16 20 22 22 17 23 26 29 28 27 33 28 25 16 12 13 10 11 8 10 16 20 23 22 22 24 26 27 25 24 21 20 18 16 18 22 21 20
4 5 9 12 16 19 21 23 24 25 28 27 26 26 28 27 26 21 15 11 11 11 9 11 14 18 20 19 19 21 25 27 26 24 19 16 16 15 17 17 22 23 20
4 7 12 17 20 21 23 26 27 28 28 24 26 23 27 28 25 21 17 12 10 11 7 11 17 18 18 17 18 21 24 24 24 21 19 15 15 17 21 19 14 16 18
8 13 18 20 21 23 26 26 28 30 28 22 22 25 30 25 25 18 12 13 9 5 10 15 16 16 15 16 18 21 22 22 22 21 18 17 19 20 18 15 16 15 15
11 16 20 22 21 23 24 26 29 28 24 19 23 24 23 24 22 13 12 9 7 10 13 14 15 13 14 14 17 21 21 23 24 20 19 19 19 17 15 14 11 11 11
15 19 21 21 21 22 23 27 27 26 22 23 24 26 23 19 12 9 7 7 9 11 13 13 12 13 13 15 16 21 22 23 24 21 19 18 16 14 13 11 9 10 11
17 20 21 21 23 24 26 27 28 24 22 21 19 17 17 10 9 8 7 9 10 12 12 12 13 15 15 15 18 18 19 22 23 20 17 16 15 14 14 13 11 12 13
18 19 21 23 24 26 28 29 24 19 19 21 17 12 13 10 9 12 11 10 10 11 10 13 13 14 14 15 17 17 19 19 21 19 17 16 15 15 16 15 14 13 14

GFSMW_850_spd_042.txt.gz
Wind_Speed
6 6 7 8 11 16 18 16 16 15 15 3 3 3 2 5 10 12 13 14 16 17 19 21 23 24 26 26 28 30 31 31 31 33 34 32 13 5 14 23 24 21 23
21 19 16 13 12 10 4 2 8 8 6 5 4 3 5 7 13 16 16 16 17 19 21 22 23 24 26 29 30 30 31 30 30 30 31 14 24 11 6 14 25 25 22
19 16 11 8 11 16 16 14 12 9 7 5 6 5 4 8 13 17 19 20 20 18 19 21 23 26 27 27 29 28 28 30 27 24 18 10 7 26 19 21 19 21 26
13 12 14 17 15 15 14 14 13 9 6 4 2 4 7 11 13 15 17 16 17 19 22 24 25 26 26 26 28 29 28 25 21 19 17 16 20 18 15 13 25 22 18
14 15 13 12 12 9 9 7 5 2 2 4 5 8 9 12 13 13 16 16 18 20 22 23 23 24 25 27 27 24 21 18 17 16 17 17 17 17 14 23 15 23 22
15 13 11 8 8 8 7 5 2 4 8 8 9 10 13 15 15 15 15 18 20 20 20 20 22 24 25 26 25 23 20 16 14 14 13 14 13 15 14 20 23 24 27
15 15 13 11 9 6 9 4 4 5 10 8 9 10 11 13 14 16 16 14 14 18 19 22 23 24 25 24 22 20 18 19 17 16 15 16 17 17 18 19 23 22 23
16 13 13 12 10 8 8 5 4 7 9 9 10 11 13 14 17 18 19 17 20 23 24 24 25 25 25 22 18 18 17 16 16 18 18 20 20 20 23 24 20 23 27
13 11 12 11 9 7 5 2 4 8 9 10 11 13 14 20 23 22 22 22 23 26 25 25 24 21 20 18 17 15 15 15 17 17 19 21 22 24 24 21 20 17 20
12 9 9 8 6 4 2 4 6 9 10 11 14 15 19 22 24 22 21 23 25 25 25 22 20 22 20 17 15 16 16 18 18 20 21 22 22 21 19 21 24 25 29
11 9 9 9 6 3 3 6 10 12 12 14 13 18 20 20 21 20 23 25 23 24 25 22 24 26 24 17 17 19 16 18 19 18 19 18 20 24 28 30 31 33 31
13 11 8 4 1 4 6 8 12 11 11 11 16 20 23 20 21 21 23 22 22 22 24 23 27 25 22 19 19 16 18 17 17 19 21 25 28 31 29 28 28 28 27
11 7 2 1 3 4 6 9 8 11 14 16 18 18 20 24 23 23 22 23 22 22 23 24 30 29 19 16 17 15 17 18 19 23 28 31 29 29 28 27 27 26 24
5 1 2 2 1 5 7 9 11 13 13 16 22 26 26 22 20 24 28 29 29 26 26 29 31 29 16 15 12 16 17 20 24 29 30 28 27 28 28 27 28 26 25
0 1 1 2 4 6 7 7 10 13 18 23 25 23 20 19 25 28 31 30 25 25 27 29 29 25 11 11 15 15 20 25 29 29 27 27 28 27 26 26 26 28 30
3 4 3 3 5 4 6 10 14 19 22 24 22 18 22 26 25 28 31 26 21 21 20 16 15 9 12 12 12 18 26 29 29 29 29 29 30 29 26 27 29 28 26
7 6 5 4 3 7 9 14 18 21 23 22 20 23 25 24 25 31 26 26 19 13 15 11 10 11 11 11 16 24 27 26 27 28 29 30 28 26 25 23 20 20 21
7 5 5 4 5 8 13 18 20 21 22 23 23 23 24 25 27 27 25 23 15 14 13 11 12 11 12 17 22 24 23 24 25 26 26 26 24 21 19 18 21 22 20
7 6 5 6 8 13 18 19 21 22 23 23 23 23 25 27 27 27 23 18 20 15 12 13 10 12 15 21 21 22 22 23 25 24 23 21 20 17 17 20 22 25 23
8 6 5 8 12 16 18 20 21 23 25 27 27 25 24 24 28 26 24 22 18 16 13 10 10 14 19 19 19 19 22 25 26 25 22 19 18 16 19 22 22 21 21
8 6 8 11 15 18 19 21 22 24 27 28 27 22 22 27 26 24 21 16 13 13 12 8 13 18 18 17 17 18 21 24 24 25 24 20 18 19 20 19 18 19 22
7 7 10 14 18 19 20 22 24 26 28 28 26 22 23 24 24 26 17 16 15 10 8 12 15 16 15 15 15 17 20 19 22 25 23 21 19 19 18 18 16 16 16
6 9 14 18 18 20 22 25 26 28 30 28 25 23 21 19 19 16 13 10 10 9 11 13 14 13 13 13 15 17 20 19 22 23 22 20 19 18 17 16 13 14 15
8 14 17 19 20 21 23 26 28 28 28 25 23 23 17 15 15 11 11 10 10 10 12 13 13 12 13 14 14 17 19 20 21 22 20 19 18 16 14 14 13 13 14
12 16 18 19 21 23 25 27 28 27 23 20 20 19 16 12 13 10 10 13 12 14 14 13 13 13 13 13 14 15 17 20 20 20 18 17 16 16 15 15 14 14 14
15 17 17 20 22 25 27 27 25 22 19 18 20 18 10 14 13 15 18 19 12 11 12 13 14 13 13 12 13 15 15 18 19 19 17 17 16 16 16 17 17 16 16

GFSMW_850_spd_045.txt.gz
Wind_Speed
5 5 7 7 7 8 9 10 9 15 7 12 7 11 7 8 6 5 7 9 12 14 16 17 19 21 23 25 26 27 27 26 28 27 19 22 10 8 11 18 22 21 21
11 8 7 7 7 5 6 4 3 6 9 9 10 10 8 4 3 9 13 16 19 18 17 18 19 22 23 24 25 25 26 26 26 23 16 10 12 11 10 13 22 24 24
19 18 14 11 19 22 20 17 15 14 12 10 7 6 4 3 8 12 15 16 18 16 16 19 20 22 23 23 24 25 26 24 23 20 12 9 8 15 11 12 21 20 23
15 13 20 21 20 20 19 17 15 12 10 7 3 1 2 5 10 10 12 14 14 16 18 19 19 19 21 23 24 24 23 21 16 15 12 14 14 10 15 14 19 21 19
14 19 19 18 17 16 14 13 11 8 5 3 3 5 6 6 7 9 12 15 17 17 17 16 18 19 20 20 21 21 21 19 16 12 13 14 11 11 11 19 18 19 19
18 18 17 14 14 13 13 12 10 8 6 4 4 5 5 5 8 12 15 16 16 14 15 17 18 18 20 21 21 20 18 17 15 14 12 12 13 15 16 20 23 22 22
19 19 18 15 13 13 12 9 8 5 3 3 5 6 6 10 14 15 15 16 15 17 19 20 19 20 20 20 20 20 19 18 16 15 15 16 18 20 21 23 22 23 24
20 17 15 13 12 10 10 9 6 5 4 4 5 6 10 12 14 17 16 16 19 19 21 21 22 21 20 21 22 22 20 16 16 15 17 18 19 21 25 25 23 24 28
17 14 13 14 12 11 10 7 6 4 3 4 7 10 10 13 15 16 16 18 21 21 21 22 23 22 21 23 24 23 18 17 17 17 19 20 23 24 23 21 16 18 26
13 14 13 13 13 11 9 7 3 3 5 8 10 8 12 15 18 20 20 21 22 23 23 23 23 23 22 22 23 22 17 18 16 18 20 20 21 20 21 22 24 21 26
11 11 12 13 12 9 7 3 3 5 8 10 10 12 17 20 20 21 22 22 23 22 22 22 24 24 24 23 24 19 16 14 16 18 19 19 21 25 27 28 24 22 22
14 14 14 12 9 6 3 2 6 7 11 9 12 15 16 20 23 21 19 21 25 24 24 23 23 25 24 22 25 15 11 13 16 18 20 23 27 28 24 21 21 20 21
16 14 11 8 5 3 2 4 9 7 8 10 14 19 23 22 19 17 21 24 28 26 24 23 24 24 24 24 26 11 10 13 16 20 24 29 28 23 21 21 22 22 23
15 11 7 5 4 3 2 7 5 7 12 16 20 20 17 15 16 21 25 27 26 25 24 22 22 23 23 26 9 8 15 15 19 24 28 29 25 23 23 23 23 23 23
12 8 7 6 4 2 3 3 7 12 16 18 18 16 14 18 20 23 26 26 24 25 25 22 19 17 12 8 10 14 13 18 24 28 28 27 27 29 28 23 22 22 24
10 9 9 6 4 4 3 7 11 15 18 17 16 16 19 21 23 25 26 24 24 23 16 16 14 9 9 10 10 12 17 24 27 27 27 28 29 25 25 25 22 20 20
12 11 7 5 5 3 6 11 15 17 17 17 18 19 20 22 23 23 24 23 21 19 18 14 11 12 11 9 13 18 22 23 23 25 27 27 23 22 18 18 16 18 20
13 11 9 8 5 5 9 13 16 18 18 19 20 22 22 22 22 21 24 23 22 20 20 14 11 11 10 13 17 22 21 21 23 24 24 23 20 18 17 17 21 19 21
12 10 8 6 5 6 11 15 17 18 19 21 22 23 22 22 22 25 26 23 23 21 17 14 11 10 12 16 21 21 20 21 23 23 21 21 18 18 16 20 22 20 19
10 10 8 5 5 10 14 17 17 19 20 22 24 25 24 22 22 26 25 24 23 16 11 11 11 10 15 18 19 19 20 22 23 20 20 20 18 18 19 20 20 20 19
11 10 6 5 9 13 16 17 18 19 22 24 26 26 24 24 25 24 24 24 16 15 13 9 10 14 17 17 16 17 19 20 19 19 20 18 22 19 18 17 16 18 21
9 6 5 8 12 14 16 18 19 22 24 26 26 25 25 25 19 17 19 13 11 11 11 11 14 16 16 15 15 16 17 19 18 20 20 22 21 20 19 17 17 17 17
9 5 8 11 13 15 17 19 21 24 26 27 26 22 23 20 16 16 13 11 11 10 11 13 15 15 14 14 15 16 17 18 19 19 21 20 19 19 17 16 16 15 15
5 8 11 13 14 16 18 21 23 26 28 25 20 19 20 18 13 14 11 11 12 14 15 15 16 14 14 15 15 16 18 18 19 19 20 19 17 17 16 16 15 15 16
8 11 13 14 16 18 20 23 26 26 23 22 20 18 18 14 13 13 12 16 19 20 17 16 14 13 14 14 15 15 15 17 19 19 18 17 16 16 16 15 15 16 16
10 12 14 16 17 20 24 25 23 20 20 20 19 18 18 15 14 14 16 16 17 14 13 12 14 15 15 15 15 15 15 16 17 18 17 16 16 16 16 16 16 16 17

GFSMW_850_spd_048.txt.gz
Wind_Speed
5 4 6 7 9 12 12 10 7 9 8 8 6 9 12 10 6 1 5 9 12 15 15 12 14 16 13 19 19 16 16 17 17 19 20 21 18 14 13 13 13 13 12
7 6 6 8 9 12 12 12 8 7 10 11 11 11 11 8 4 3 7 10 14 17 15 14 13 18 13 13 14 16 16 16 15 18 21 21 21 21 11 14 14 15 17
12 12 11 12 14 14 14 13 13 14 14 13 12 11 11 5 3 4 5 13 15 13 14 16 17 16 13 13 15 14 14 16 16 15 15 18 18 21 21 14 19 18 19
14 11 16 17 17 17 15 15 14 14 15 14 10 10 6 5 6 4 8 10 13 14 16 17 14 13 13 13 13 13 14 14 16 16 15 16 18 16 16 17 19 18 18
13 18 18 18 16 18 15 14 13 11 14 11 8 6 4 5 3 5 9 9 10 13 15 14 14 13 13 13 13 13 13 15 15 16 17 17 16 17 17 21 20 22 22
17 18 16 15 13 16 16 14 12 11 10 7 7 7 7 6 3 5 7 9 10 9 12 13 14 14 15 15 15 15 16 16 16 17 16 14 14 16 17 20 21 24 26
20 19 17 14 12 13 13 11 10 8 8 8 7 7 6 3 4 6 9 11 13 14 16 17 18 19 19 18 17 18 17 17 18 17 16 15 15 17 19 19 24 26 29
19 17 16 14 12 12 11 10 9 9 8 6 4 3 2 4 6 9 11 14 15 16 17 18 19 19 21 21 19 18 18 18 18 16 15 15 17 16 18 20 20 26 28
18 16 14 13 13 11 11 10 8 7 7 6 7 9 9 9 10 14 14 13 15 18 19 20 21 22 22 21 20 20 20 20 18 18 15 14 16 17 19 20 21 23 30
16 15 14 12 11 10 11 13 10 9 6 5 8 8 9 10 13 13 12 13 15 16 18 20 21 23 23 21 21 20 20 19 18 15 14 15 16 18 20 21 23 24 29
16 15 13 11 11 11 11 11 7 5 4 6 9 8 9 13 11 11 11 12 15 18 20 21 22 22 23 21 21 21 20 21 15 14 14 14 17 20 22 23 24 24 26
15 14 13 14 13 12 10 10 7 4 11 7 3 7 10 10 10 10 12 15 17 19 20 19 19 19 19 19 22 25 21 13 12 12 13 17 20 22 22 22 23 25 27
15 15 14 14 12 11 11 8 4 8 1 3 7 9 10 11 11 12 14 16 18 19 18 17 17 17 17 16 18 19 21 9 11 12 15 20 21 22 22 23 25 26 27
17 15 14 13 11 10 8 5 3 4 5 7 10 12 12 11 11 14 15 16 18 18 17 17 17 18 18 18 14 9 7 10 12 14 18 20 20 21 21 24 24 25 26
17 16 15 13 11 11 9 3 6 6 10 13 13 11 11 12 13 14 15 17 17 17 17 13 12 15 10 6 5 7 8 11 15 17 17 17 20 27 24 21 21 23 24
18 17 15 14 13 11 8 7 7 10 14 14 11 12 13 14 15 16 16 17 18 18 15 14 13 9 8 12 10 9 10 14 15 16 16 17 19 17 23 21 25 19 17
19 17 16 14 11 10 9 5 7 12 13 11 12 13 14 15 16 16 16 17 19 17 17 15 12 11 10 12 11 12 13 14 13 14 16 17 16 20 19 20 20 20 22
18 17 15 13 11 9 6 6 10 12 13 13 15 15 16 17 15 15 16 18 19 17 17 17 13 11 9 11 13 16 15 12 13 14 16 16 17 18 22 20 20 21 20
15 14 13 12 11 7 6 10 11 11 11 13 14 16 18 15 15 15 18 19 17 16 17 15 10 9 9 13 16 18 12 12 14 15 15 17 17 19 22 19 21 20 19
15 14 14 12 8 6 9 11 9 11 11 13 18 18 16 14 15 17 18 17 17 15 12 8 8 10 9 15 18 16 12 14 13 14 15 17 23 26 19 18 19 19 18
15 15 12 7 5 8 11 12 10 10 13 17 18 17 16 15 17 18 13 14 14 13 11 12 11 9 11 16 16 15 15 12 14 14 15 15 22 22 21 18 15 18 20
16 14 6 3 9 11 13 10 11 12 16 18 19 18 14 14 14 14 13 12 11 10 11 12 12 10 14 14 14 14 14 15 16 14 15 17 21 20 19 15 17 18 16
11 8 4 8 11 12 13 13 12 17 19 20 17 14 15 15 14 13 12 11 9 9 10 12 12 12 13 11 15 14 14 15 16 14 16 19 19 18 16 15 16 14 13
8 3 6 10 10 13 15 15 17 20 19 15 17 19 19 14 13 11 11 10 10 10 12 15 15 14 13 11 12 12 11 15 14 13 17 17 16 16 16 13 12 11 13
4 6 11 12 11 13 15 18 19 19 16 15 16 17 17 16 13 12 11 12 12 13 15 13 15 16 14 12 15 13 12 12 13 18 15 12 12 11 10 10 11 11 12
9 11 12 11 10 14 17 17 17 15 16 16 16 16 18 16 15 15 15 15 19 18 17 16 15 15 17 17 16 15 14 15 16 16 12 13 12 12 11 11 11 10 12

GFSMW_850_spd_051.txt.gz
Wind_Speed
9 8 8 8 11 14 17 24 17 13 12 7 9 9 11 12 11 6 5 3 1 3 5 5 7 10 9 11 12 13 15 16 18 21 23 22 25 22 19 18 17 16 17
11 9 9 9 12 14 15 12 12 11 8 6 7 10 10 10 9 8 4 3 6 14 8 16 10 11 12 12 12 14 16 17 17 21 22 26 25 18 10 12 17 19 20
13 13 12 12 14 15 14 13 12 12 11 11 12 11 11 9 7 5 2 7 12 18 20 15 12 11 11 12 14 14 15 18 18 17 20 25 23 25 24 24 19 19 19
15 14 15 15 15 15 15 14 14 13 13 12 9 10 8 6 7 2 6 5 12 8 9 10 10 10 12 14 15 15 17 17 21 21 20 20 23 25 27 20 21 23 22
17 17 18 19 18 17 16 15 14 13 12 10 9 9 6 4 4 4 6 9 9 11 10 9 11 13 15 16 18 19 18 19 21 21 20 20 20 20 22 25 22 21 21
17 19 19 19 17 16 15 14 13 11 10 9 8 7 6 5 5 6 8 8 10 10 11 13 14 17 18 18 19 24 21 21 21 21 21 20 18 18 16 18 22 23 24
20 21 20 18 15 14 14 12 12 10 9 8 7 6 4 5 4 7 9 10 11 13 13 14 16 18 19 21 22 24 23 21 21 19 19 16 16 15 15 17 20 23 26
21 21 19 16 14 13 13 12 12 11 9 8 7 5 2 3 6 9 11 13 13 13 15 17 18 20 21 22 22 26 22 19 20 21 19 16 16 14 14 16 20 26 28
22 20 18 16 14 13 13 13 13 12 11 11 9 4 5 9 9 10 12 12 13 14 16 17 18 19 20 21 22 24 24 22 20 18 17 16 12 12 15 17 19 23 28
21 19 17 16 15 14 13 13 13 13 10 8 6 10 14 7 9 10 12 12 12 13 15 17 18 20 20 21 22 23 22 20 19 17 17 12 14 14 16 19 21 24 28
22 19 17 15 15 14 14 14 14 11 9 6 13 10 4 8 10 11 11 11 12 14 16 18 18 18 19 20 20 22 20 20 21 21 15 12 13 15 18 20 24 26 27
20 18 17 16 16 16 15 14 14 12 5 12 2 5 8 10 10 11 11 12 14 15 17 18 18 19 19 19 19 19 18 18 16 13 11 11 13 17 20 22 23 26 27
19 18 18 17 17 17 16 15 13 9 11 4 7 8 10 11 11 11 13 14 14 16 17 17 19 20 19 18 20 18 14 13 9 10 11 14 17 20 21 22 23 25 27
19 19 18 18 17 17 16 14 9 6 5 6 7 10 11 10 11 13 13 14 15 17 17 18 18 23 17 14 13 10 8 9 10 10 13 16 19 19 18 21 22 21 23
21 20 19 18 17 17 15 12 8 6 6 6 8 10 10 11 13 14 15 16 17 17 19 19 18 15 18 10 8 9 10 9 12 14 16 16 18 25 25 22 21 20 21
20 20 18 18 17 16 14 10 8 6 5 7 9 9 11 13 14 16 17 18 17 18 19 19 20 18 14 18 17 16 10 11 14 15 15 16 17 16 21 20 22 27 24
19 18 18 17 16 14 12 9 7 5 5 8 9 10 12 14 15 17 17 17 18 19 20 21 20 21 17 22 16 14 13 12 13 14 15 16 15 18 18 19 23 23 23
17 17 16 15 13 12 10 8 5 4 7 9 10 11 13 15 17 17 17 17 18 19 20 20 18 21 18 17 16 14 15 11 12 13 14 15 15 17 25 27 22 21 21
15 14 14 13 12 11 8 5 5 7 8 10 11 13 14 16 17 17 17 18 18 18 20 17 16 14 15 16 17 15 14 11 13 12 13 14 16 18 24 27 21 21 20
13 14 13 14 12 9 4 4 7 8 10 11 12 14 15 17 17 17 18 16 16 17 16 17 11 10 12 16 18 17 14 14 13 11 12 16 21 25 27 24 19 19 18
12 14 14 12 9 4 3 7 10 10 11 12 13 15 16 17 17 17 17 15 15 17 23 17 17 14 14 15 19 19 14 11 12 12 11 11 22 24 22 20 18 17 24
15 13 12 8 5 0 6 8 10 11 12 14 15 16 16 16 16 17 17 15 16 18 19 15 16 12 15 17 19 17 15 14 16 13 12 15 20 20 18 16 16 18 15
13 10 8 3 0 4 5 9 10 12 13 15 15 16 16 17 15 17 18 17 17 15 16 15 14 15 17 15 17 17 17 16 15 13 14 18 20 18 16 14 16 17 14
10 7 4 1 4 6 10 10 11 13 14 15 16 16 18 19 17 14 15 16 16 14 15 15 16 18 16 16 12 15 16 16 17 13 14 20 14 16 17 15 12 13 14
8 3 2 6 8 9 10 10 12 13 13 14 16 17 17 19 21 19 16 17 16 17 17 17 17 18 18 15 17 18 18 16 16 19 19 13 12 13 12 12 12 12 12
2 2 8 12 10 10 11 11 11 12 14 15 15 16 19 22 22 21 20 19 21 21 23 23 23 22 21 19 21 22 20 18 18 17 13 13 13 13 12 12 12 11 12